Theta_e
356 358 355 355 349 350 353 352 346 338 339 348 345 355 355 356 362 361 361 352 349 347 345 344 346 348 350 352 353 353 355 355 355 354 355 356 358 360
356 358 359 356 353 348 353 352 351 345 339 345 345 349 353 351 358 363 362 355 349 347 345 344 344 345 346 348 348 348 349 350 350 350 350 350 351 353
358 356 359 360 355 354 353 352 349 349 342 343 346 353 360 359 357 363 363 362 359 347 346 344 342 343 344 344 344 344 345 345 345 346 347 347 347 348
358 359 355 361 359 357 356 357 356 357 348 351 352 348 356 358 360 364 358 354 355 350 346 344 341 341 340 340 340 340 339 339 339 339 339 340 340 341
361 359 357 360 358 357 354 350 352 360 354 350 347 350 351 353 357 361 360 361 358 352 345 344 343 340 338 337 335 333 329 329 329 329 329 330 331 332
359 361 360 359 359 360 356 358 355 352 354 350 348 347 348 357 353 351 349 353 351 352 350 345 345 338 336 332 332 329 324 323 322 322 322 321 322 323
358 358 357 356 350 354 359 358 362 353 347 346 345 345 345 346 348 350 348 350 357 355 354 354 357 356 350 334 339 332 325 322 319 317 316 315 315 316
356 359 360 351 349 342 342 343 354 358 358 345 343 343 358 354 350 348 347 346 344 353 355 351 353 351 354 357 339 330 324 321 319 317 316 315 315 315
355 355 355 355 353 359 342 338 340 339 346 359 354 354 358 359 361 359 358 356 352 350 358 348 352 349 355 343 329 325 322 320 319 317 316 316 315 314
351 350 351 355 356 357 357 355 355 355 352 352 356 355 358 362 366 362 362 360 361 354 362 346 350 356 355 356 326 324 321 320 318 317 318 317 315 313
347 346 345 345 338 333 356 356 356 356 343 338 340 338 340 337 344 364 351 347 345 348 366 350 349 348 351 353 342 325 322 318 317 318 318 317 315 313
348 349 332 337 327 326 350 356 355 356 355 356 354 347 342 350 335 357 352 346 347 343 353 352 347 359 347 350 349 337 333 318 315 314 315 315 314 326
343 343 344 325 322 320 322 350 348 351 352 357 361 362 355 354 354 355 358 352 356 354 361 366 348 355 346 343 341 340 340 335 337 328 311 311 310 316
342 344 344 321 319 317 323 327 325 328 351 356 357 357 356 348 349 353 362 360 359 364 365 365 352 347 343 341 338 337 338 339 339 336 337 325 311 311
342 337 322 316 315 320 319 320 321 340 342 340 346 351 359 353 364 368 363 365 366 363 360 359 354 355 345 340 334 333 332 335 336 335 337 338 338 339
330 336 331 326 324 326 331 333 341 342 341 342 345 350 354 361 357 361 357 353 351 350 356 357 356 353 341 337 333 333 335 332 338 336 336 336 338 339
335 339 337 336 336 336 338 341 344 350 344 344 344 351 355 357 357 360 357 355 346 346 346 347 351 349 343 345 332 335 336 336 337 337 341 335 335 336
330 333 334 332 334 336 337 336 338 338 342 344 343 343 344 352 356 358 357 353 349 347 347 344 343 339 338 341 336 336 337 336 337 338 339 332 332 336
325 328 331 336 332 334 339 339 339 341 346 342 342 342 342 344 347 350 355 354 352 352 353 344 340 338 331 328 335 327 334 335 335 334 333 335 332 333
326 328 329 333 337 337 337 336 339 340 340 340 341 342 341 342 344 343 347 350 351 352 352 343 340 339 330 332 331 338 314 338 336 335 334 337 337 318
329 331 334 335 336 337 337 338 339 337 338 340 341 340 342 342 345 342 341 330 338 351 347 342 342 331 339 342 334 335 338 313 327 339 343 332 332 332
330 332 333 334 336 337 337 338 337 337 338 339 339 341 342 342 342 343 341 342 346 348 346 345 343 338 335 336 333 335 334 335 322 314 317 319 332 327
330 331 332 334 336 337 338 338 337 338 339 341 340 342 342 343 342 341 340 341 346 348 350 341 341 337 335 337 331 333 337 336 334 332 328 314 316 317
Wind_Speed
8 8 7 5 3 8 7 5 8 8 6 7 4 5 4 5 3 7 11 13 14 13 12 12 13 12 13 13 13 13 14 14 14 14 14 15 16 17
9 11 10 4 6 9 9 8 7 8 10 3 4 2 6 8 7 5 7 8 12 12 12 12 12 12 12 12 13 13 13 13 13 13 13 14 14 15
13 11 12 12 7 10 12 9 9 9 9 9 5 5 4 8 6 4 6 7 8 15 13 12 12 12 12 12 13 13 12 12 12 12 13 12 12 12
15 14 15 10 14 13 7 8 10 8 9 10 9 8 6 8 7 6 8 9 8 12 12 12 11 12 12 12 12 11 11 10 8 8 8 8 10 10
14 14 16 15 14 12 12 12 12 8 9 11 10 8 7 6 7 9 9 9 9 10 12 12 11 10 10 11 10 8 6 6 6 6 5 4 3 3
14 14 16 16 16 15 14 14 12 10 11 10 11 10 9 8 8 9 9 9 9 9 1 5 8 8 7 6 7 7 6 7 7 7 5 3 3 3
16 15 16 18 17 15 11 14 13 12 12 12 12 11 11 10 9 8 10 8 6 7 9 7 9 8 8 9 6 9 9 9 8 6 5 3 0 2
17 17 16 15 15 15 18 15 14 13 13 12 12 14 10 8 10 9 10 9 9 8 7 8 9 8 8 10 10 14 10 9 8 7 5 3 1 1
16 15 15 14 17 17 19 18 19 17 19 13 14 14 10 9 10 8 10 8 10 9 6 9 9 9 7 9 14 14 11 10 8 7 6 5 4 4
13 14 15 16 15 17 18 18 18 18 19 16 17 16 15 13 10 10 10 9 9 11 9 10 9 6 7 4 12 12 11 10 10 9 8 6 6 7
13 13 15 14 13 10 18 18 17 14 14 19 17 13 14 10 9 8 10 11 11 10 4 8 9 8 5 6 10 14 12 11 10 9 9 8 7 7
14 16 13 16 9 8 14 17 15 15 16 14 16 15 13 13 10 13 12 12 11 8 11 8 9 3 8 7 5 9 9 12 12 12 12 11 7 7
13 13 12 15 14 14 11 15 12 11 13 12 10 9 12 15 14 14 15 14 9 9 4 5 6 5 7 5 5 6 7 7 9 10 14 13 12 10
15 10 8 10 10 12 10 13 11 8 9 8 8 9 11 13 13 13 13 14 12 11 4 9 8 7 7 8 6 6 6 6 6 6 6 7 12 13
15 9 1 9 8 9 14 12 10 9 12 12 11 10 9 11 8 5 10 12 11 10 7 11 9 8 8 8 6 5 5 6 6 6 6 7 7 8
14 13 14 12 11 8 8 12 10 11 13 12 12 11 10 8 10 8 8 7 7 8 10 10 12 10 8 8 7 7 7 6 8 6 7 7 7 7
7 8 9 9 10 10 10 12 8 11 12 12 11 10 8 9 9 9 9 10 12 11 9 9 10 11 9 7 8 8 7 7 7 6 6 8 8 8
7 7 9 7 9 9 10 9 8 11 13 11 10 11 11 10 9 9 9 11 11 11 7 9 10 10 9 10 10 9 8 8 7 9 7 9 7 5
5 7 9 10 8 9 10 11 13 11 11 11 12 11 11 12 11 10 11 11 12 10 9 7 12 11 11 11 10 19 9 8 8 8 7 8 8 8
9 9 10 11 11 9 9 9 9 9 10 10 10 10 10 12 12 10 12 13 13 11 10 9 12 12 10 11 9 11 18 9 7 3 7 7 3 11
12 12 12 12 12 11 11 12 11 10 11 10 11 11 11 10 13 11 10 15 13 12 12 12 13 12 8 9 8 9 11 20 11 6 3 6 5 8
13 13 13 12 12 12 12 12 11 13 13 12 12 10 10 12 12 14 10 14 15 12 12 10 8 9 6 8 11 9 6 5 3 4 5 2 5 9
13 14 13 13 11 12 13 13 13 15 13 14 14 13 13 12 14 11 11 13 14 13 13 10 8 5 8 13 12 11 9 9 9 10 8 8 7 7
Wind_Direction
228 218 223 212 228 287 275 273 296 293 208 168 255 157 241 204 160 238 231 187 198 209 217 222 230 232 232 233 229 229 233 235 241 243 244 245 248 249
210 211 211 203 207 252 266 255 256 271 284 279 232 276 352 325 147 247 242 153 188 207 212 218 225 228 229 233 236 235 238 240 242 247 247 248 252 255
239 216 209 209 206 221 234 234 245 247 256 264 259 254 253 266 291 249 226 228 208 193 201 210 218 220 225 229 234 234 235 242 245 250 256 262 264 266
225 233 221 208 216 231 239 261 276 257 263 260 274 283 234 261 252 267 275 282 287 163 182 199 214 220 224 225 228 226 225 228 243 259 266 270 273 276
236 227 231 219 225 219 216 221 225 236 241 251 266 249 246 264 251 239 254 260 268 153 188 197 212 216 217 213 211 214 221 228 225 226 221 228 259 296
234 233 232 234 229 224 228 222 228 233 226 246 251 252 242 237 246 263 257 233 248 261 194 111 166 170 202 193 179 173 165 156 155 146 121 89 42 352
243 232 232 233 227 222 222 225 238 216 233 232 240 249 249 245 239 245 249 259 258 246 262 248 207 204 194 201 181 184 167 162 152 141 133 125 46 321
232 233 231 225 232 222 216 225 224 229 241 249 235 236 250 253 246 258 263 263 251 235 217 251 259 263 260 195 136 146 168 169 166 162 156 157 153 196
244 231 231 226 214 225 218 217 221 218 227 226 238 253 264 241 258 249 244 252 258 263 195 261 266 254 248 121 139 148 167 179 178 178 178 182 191 219
245 240 243 246 233 224 228 216 219 220 223 226 231 235 239 249 241 240 260 254 258 260 265 267 272 257 252 120 141 159 185 188 188 191 192 195 200 222
248 251 255 255 264 253 247 227 220 224 210 208 223 232 226 223 244 228 232 235 244 252 200 241 264 269 258 244 161 173 195 203 200 201 206 217 232 260
250 248 222 249 263 268 250 249 238 233 226 214 216 225 233 233 202 232 244 244 229 248 255 202 244 244 257 206 214 163 202 207 209 213 221 222 220 261
256 261 239 195 221 235 245 257 258 289 244 231 225 232 219 220 227 215 227 242 238 243 179 211 241 220 241 273 201 215 210 148 204 204 221 220 212 233
262 261 259 169 203 228 226 242 272 272 271 248 241 225 237 217 218 222 214 229 234 232 184 228 240 244 236 241 233 180 215 229 219 224 217 161 205 215
260 272 221 169 210 244 240 245 215 236 238 257 236 232 228 261 281 232 216 218 232 240 210 215 238 232 237 247 236 203 208 198 215 228 226 229 234 223
245 251 242 233 248 264 279 220 228 235 239 233 247 242 220 222 223 221 210 198 206 208 216 209 225 232 224 233 236 214 194 232 187 219 235 238 243 243
302 269 263 239 237 232 237 241 229 232 223 230 223 237 264 220 221 209 211 208 216 216 185 197 215 225 229 247 224 232 236 222 221 215 207 250 240 236
276 252 252 230 237 239 238 242 229 234 241 222 231 242 233 227 226 219 212 217 217 229 202 183 188 204 207 220 252 236 220 234 234 201 234 260 260 248
231 236 252 260 217 229 231 228 235 222 229 239 221 226 226 230 220 220 217 216 223 222 208 194 187 209 207 218 200 213 240 234 228 212 241 226 257 273
233 232 238 243 252 225 235 243 255 245 220 228 228 227 231 241 227 218 220 217 221 220 203 194 193 202 217 221 225 183 207 240 246 272 234 196 253 118
232 236 235 244 241 239 241 245 246 240 244 224 223 223 225 234 229 222 214 221 221 215 205 202 198 204 223 236 244 167 181 218 247 286 254 255 226 236
237 232 235 237 240 241 236 234 235 234 241 235 240 239 230 221 229 222 205 218 219 224 211 204 169 182 208 221 222 219 214 150 217 11 125 43 328 300
238 240 245 228 234 239 235 237 226 237 235 239 242 238 232 227 231 219 214 214 227 219 205 182 172 158 193 219 225 238 214 156 190 177 109 36 99 150